contact:dominique.lefevre@mio.osupytheas.fr, maurice.libes@osupytheas.fr, didier.mallarino@osupytheas.fr
Project:EMSO http://www.emso-fr.org/EMSO-France
Depth: 2436.0 m
Title:EMSO Ligure Ouest : Data MII capteur AQUADOPP
Date,Latitude,Longitude,X_East,Y_North,Z_Up,Amplitude_X,Amplitude_Y,Amplitude_Z,Batterie,SoundSpeed,Heading,Pitch,Roll,Pressure,TIS,Speed,Direction
, degrees North, degrees East, m.s-1, m.s-1,m.s-1, 1, 1, 1, Volt, m.s-1, degree, degree, degree, dbar, degree_C, m.s-1, degree
2021-08-10T00:04:03,42.805,6.029,0.044,-0.014,-0.027,103.0,103.0,101.0,13.4,1505.2,329.4,-0.7,1.8,2470.653,13.28,0.046,107.6
2021-08-10T00:07:03,42.805,6.029,0.016,-0.014,-0.004,103.0,102.0,101.0,13.4,1505.2,325.5,-0.7,1.8,2470.651,13.28,0.021,131.2
2021-08-10T00:10:03,42.805,6.029,0.005,-0.007,0.015,102.0,102.0,101.0,13.3,1505.2,330.0,-0.8,1.8,2470.648,13.28,0.008,144.5
2021-08-10T00:13:03,42.805,6.029,0.013,0.0,-0.006,102.0,103.0,101.0,13.4,1505.2,328.6,-0.8,1.9,2470.658,13.28,0.013,90.0
2021-08-10T00:16:03,42.805,6.029,0.034,-0.003,0.012,102.0,102.0,101.0,13.3,1505.2,327.3,-0.8,1.9,2470.627,13.28,0.034,95.0
2021-08-10T00:19:03,42.805,6.029,0.006,-0.014,-0.005,105.0,102.0,100.0,13.4,1505.2,329.9,-0.7,1.9,2470.628,13.28,0.015,156.8
2021-08-10T00:22:03,42.805,6.029,0.001,-0.003,-0.004,103.0,101.0,101.0,13.4,1505.2,327.9,-0.7,1.9,2470.582,13.28,0.003,161.6
2021-08-10T00:25:03,42.805,6.029,0.007,-0.007,0.018,102.0,103.0,101.0,13.4,1505.2,329.5,-0.7,1.8,2470.614,13.28,0.009,135.0
2021-08-10T00:28:03,42.805,6.029,0.019,0.025,-0.015,103.0,102.0,101.0,13.4,1505.2,326.7,-0.8,1.8,2470.589,13.28,0.031,37.2
2021-08-10T00:31:03,42.805,6.029,0.033,-0.004,0.012,102.0,102.0,101.0,13.3,1505.2,330.8,-0.7,1.8,2470.616,13.28,0.033,96.9
2021-08-10T00:34:03,42.805,6.029,0.028,-0.012,0.012,102.0,102.0,103.0,13.4,1505.2,325.0,-0.7,1.9,2470.579,13.28,0.03,113.2
2021-08-10T00:37:03,42.805,6.029,0.018,0.003,0.013,103.0,103.0,101.0,13.4,1505.2,329.4,-0.8,1.8,2470.604,13.28,0.018,80.5
2021-08-10T00:40:03,42.805,6.029,0.007,-0.011,0.011,103.0,103.0,101.0,13.4,1505.2,328.8,-0.7,1.8,2470.577,13.28,0.013,147.5
2021-08-10T00:43:03,42.805,6.029,0.024,-0.012,0.01,102.0,103.0,101.0,13.3,1505.2,330.1,-0.8,1.8,2470.591,13.28,0.026,116.6
2021-08-10T00:46:03,42.805,6.029,0.021,-0.006,0.0,103.0,102.0,101.0,13.4,1505.2,326.5,-0.7,1.8,2470.591,13.28,0.021,105.9
2021-08-10T00:49:03,42.805,6.029,0.015,-0.002,0.004,102.0,103.0,101.0,13.4,1505.2,326.9,-0.8,1.9,2470.566,13.28,0.015,97.6
2021-08-10T00:52:03,42.805,6.029,0.018,-0.016,-0.024,102.0,103.0,101.0,13.3,1505.2,327.4,-0.7,1.8,2470.577,13.28,0.024,131.6
2021-08-10T00:55:03,42.805,6.029,0.047,-0.009,0.0,103.0,102.0,101.0,13.4,1505.2,329.2,-0.8,1.8,2470.572,13.28,0.047,100.8
2021-08-10T00:58:03,42.805,6.029,0.012,-0.028,-0.003,102.0,102.0,101.0,13.4,1505.2,329.9,-0.7,1.8,2470.578,13.28,0.03,156.8
2021-08-10T01:04:03,42.805,6.029,0.039,-0.014,0.014,105.0,105.0,103.0,13.3,1505.2,330.3,-0.8,1.8,2470.592,13.28,0.041,109.7
2021-08-10T01:07:03,42.805,6.029,0.045,0.016,-0.029,104.0,104.0,102.0,13.3,1505.2,328.0,-0.8,1.8,2470.607,13.28,0.047,70.4
2021-08-10T01:10:02,42.805,6.029,0.012,-0.032,-0.015,102.0,103.0,101.0,13.3,1505.2,328.1,-0.8,1.8,2470.605,13.28,0.034,159.4
2021-08-10T01:13:03,42.805,6.029,0.013,0.001,-0.013,102.0,103.0,101.0,13.3,1505.2,328.8,-0.7,1.8,2470.596,13.28,0.013,85.6
2021-08-10T01:16:03,42.805,6.029,0.018,0.003,-0.006,103.0,103.0,101.0,13.4,1505.2,326.1,-0.8,1.8,2470.595,13.28,0.018,80.5
2021-08-10T01:19:03,42.805,6.029,0.041,-0.02,-0.006,102.0,103.0,102.0,13.4,1505.2,325.3,-0.7,1.8,2470.587,13.28,0.045,116.0
2021-08-10T01:22:03,42.805,6.029,0.017,-0.004,-0.015,103.0,101.0,101.0,13.4,1505.2,326.4,-0.8,1.8,2470.558,13.28,0.017,103.2
2021-08-10T01:25:03,42.805,6.029,0.03,-0.004,0.019,102.0,104.0,101.0,13.4,1505.2,326.8,-0.7,1.9,2470.578,13.28,0.03,97.6
2021-08-10T01:28:03,42.805,6.029,0.027,-0.006,0.003,102.0,102.0,102.0,13.4,1505.2,326.8,-0.8,1.9,2470.525,13.28,0.027,102.5
2021-08-10T01:31:03,42.805,6.029,0.017,-0.024,0.021,102.0,103.0,102.0,13.4,1505.2,330.2,-0.7,1.8,2470.529,13.28,0.029,144.7
2021-08-10T01:34:03,42.805,6.029,0.016,-0.022,-0.016,105.0,101.0,101.0,13.3,1505.2,330.4,-0.8,1.8,2470.547,13.28,0.027,144.0
2021-08-10T01:37:03,42.805,6.029,0.026,-0.017,0.002,103.0,103.0,102.0,13.4,1505.2,330.1,-0.8,1.8,2470.546,13.28,0.031,123.2
2021-08-10T01:40:03,42.805,6.029,0.035,-0.01,-0.005,102.0,102.0,101.0,13.4,1505.2,330.6,-0.8,1.8,2470.529,13.28,0.036,105.9
2021-08-10T01:43:03,42.805,6.029,0.039,-0.015,-0.002,102.0,103.0,101.0,13.3,1505.2,328.8,-0.7,1.8,2470.579,13.28,0.041,111.0
2021-08-10T01:46:03,42.805,6.029,0.024,-0.037,0.003,102.0,103.0,101.0,13.4,1505.2,328.9,-0.7,1.9,2470.513,13.28,0.044,147.0
2021-08-10T01:49:03,42.805,6.029,0.039,-0.019,-0.007,102.0,103.0,101.0,13.3,1505.2,330.1,-0.8,1.8,2470.537,13.28,0.043,116.0
2021-08-10T01:52:03,42.805,6.029,0.021,-0.008,0.004,103.0,102.0,102.0,13.4,1505.2,329.0,-0.7,1.8,2470.567,13.28,0.022,110.9
2021-08-10T01:55:03,42.805,6.029,0.036,-0.014,0.001,104.0,101.0,101.0,13.3,1505.2,329.1,-0.8,1.8,2470.553,13.28,0.038,111.2
2021-08-10T01:58:03,42.805,6.029,0.023,0.0,-0.018,104.0,103.0,101.0,13.4,1505.2,326.6,-0.7,1.8,2470.566,13.28,0.023,90.0
2021-08-10T02:04:03,42.805,6.029,0.032,0.002,-0.017,103.0,103.0,101.0,13.3,1505.2,328.6,-0.7,1.8,2470.535,13.28,0.032,86.4
2021-08-10T02:07:03,42.805,6.029,0.021,-0.012,-0.013,103.0,102.0,101.0,13.4,1505.2,325.2,-0.8,1.8,2470.571,13.28,0.024,119.7
2021-08-10T02:10:03,42.805,6.029,0.026,0.0,-0.007,104.0,103.0,101.0,13.3,1505.2,328.8,-0.8,1.8,2470.553,13.28,0.026,90.0
2021-08-10T02:13:03,42.805,6.029,0.012,0.007,0.049,102.0,103.0,102.0,13.4,1505.2,329.3,-0.7,1.8,2470.549,13.28,0.013,59.7
2021-08-10T02:16:03,42.805,6.029,0.02,-0.004,-0.003,102.0,103.0,101.0,13.4,1505.2,329.1,-0.7,1.8,2470.546,13.28,0.02,101.3
2021-08-10T02:19:03,42.805,6.029,0.02,-0.025,-0.003,103.0,103.0,101.0,13.4,1505.2,326.6,-0.8,1.8,2470.549,13.28,0.032,141.3
2021-08-10T02:22:03,42.805,6.029,0.03,0.001,0.01,103.0,102.0,100.0,13.4,1505.2,325.3,-0.8,1.8,2470.543,13.28,0.03,88.1
2021-08-10T02:25:03,42.805,6.029,0.02,-0.001,-0.008,102.0,102.0,100.0,13.4,1505.2,328.6,-0.7,1.9,2470.552,13.28,0.02,92.9
2021-08-10T02:28:03,42.805,6.029,0.046,-0.011,0.015,103.0,103.0,102.0,13.4,1505.2,328.0,-0.8,1.8,2470.568,13.28,0.047,103.4
2021-08-10T02:31:03,42.805,6.029,0.056,-0.006,0.025,102.0,103.0,101.0,13.4,1505.2,327.5,-0.8,1.8,2470.53,13.28,0.056,96.1
2021-08-10T02:34:03,42.805,6.029,0.017,0.005,0.023,103.0,102.0,101.0,13.4,1505.2,329.6,-0.8,1.8,2470.525,13.28,0.017,73.6
2021-08-10T02:37:03,42.805,6.029,0.041,0.0,-0.001,103.0,103.0,102.0,13.3,1505.2,327.0,-0.8,1.9,2470.532,13.28,0.041,90.0
2021-08-10T02:40:03,42.805,6.029,0.032,0.0,0.016,103.0,103.0,102.0,13.4,1505.2,327.6,-0.8,1.8,2470.526,13.28,0.032,90.0
2021-08-10T02:43:03,42.805,6.029,0.014,-0.008,-0.015,103.0,103.0,101.0,13.3,1505.2,326.1,-0.8,1.8,2470.502,13.28,0.016,119.7
2021-08-10T02:46:03,42.805,6.029,0.032,-0.021,-0.03,103.0,103.0,101.0,13.4,1505.2,330.8,-0.7,1.8,2470.531,13.28,0.038,123.3
2021-08-10T02:49:03,42.805,6.029,0.009,-0.017,-0.024,103.0,103.0,102.0,13.4,1505.2,328.1,-0.7,1.8,2470.501,13.28,0.019,152.1
2021-08-10T02:52:03,42.805,6.029,0.038,-0.013,0.003,103.0,102.0,101.0,13.3,1505.2,325.4,-0.8,1.8,2470.491,13.28,0.04,108.9
2021-08-10T02:55:03,42.805,6.029,0.018,0.031,0.054,103.0,104.0,101.0,13.4,1505.2,326.0,-0.8,1.8,2470.507,13.28,0.035,30.1
2021-08-10T02:58:03,42.805,6.029,0.005,-0.018,-0.033,102.0,103.0,101.0,13.3,1505.2,325.6,-0.7,1.8,2470.512,13.28,0.018,164.5
2021-08-10T03:04:03,42.805,6.029,0.018,-0.013,0.004,102.0,103.0,101.0,13.4,1505.2,326.7,-0.8,1.8,2470.566,13.28,0.022,125.8
2021-08-10T03:07:03,42.805,6.029,0.03,-0.027,-0.01,102.0,102.0,100.0,13.4,1505.2,325.7,-0.7,1.8,2470.564,13.28,0.04,132.0
2021-08-10T03:10:03,42.805,6.029,0.025,-0.001,0.021,103.0,103.0,102.0,13.4,1505.2,329.2,-0.7,1.8,2470.546,13.28,0.025,92.3
2021-08-10T03:13:03,42.805,6.029,0.029,0.0,-0.03,103.0,103.0,101.0,13.3,1505.2,325.5,-0.7,1.8,2470.514,13.28,0.028,90.0
2021-08-10T03:16:03,42.805,6.029,0.039,-0.024,0.004,102.0,104.0,100.0,13.3,1505.2,331.1,-0.7,1.8,2470.513,13.28,0.045,121.6
2021-08-10T03:19:03,42.805,6.029,0.034,-0.007,0.039,102.0,103.0,101.0,13.4,1505.2,327.3,-0.7,1.8,2470.529,13.28,0.034,101.6
2021-08-10T03:22:03,42.805,6.029,0.044,-0.021,-0.007,103.0,103.0,101.0,13.3,1505.2,329.2,-0.7,1.8,2470.525,13.28,0.048,115.5
2021-08-10T03:25:03,42.805,6.029,0.028,-0.009,0.004,103.0,102.0,101.0,13.3,1505.2,329.8,-0.8,1.9,2470.535,13.28,0.029,107.8
2021-08-10T03:28:03,42.805,6.029,0.04,-0.019,-0.019,103.0,102.0,101.0,13.3,1505.2,326.9,-0.7,1.8,2470.463,13.28,0.044,115.4
2021-08-10T03:31:03,42.805,6.029,0.028,-0.002,0.016,103.0,104.0,101.0,13.3,1505.2,328.8,-0.8,1.8,2470.515,13.28,0.028,94.1
2021-08-10T03:34:03,42.805,6.029,0.054,0.0,0.024,103.0,105.0,101.0,13.4,1505.2,326.0,-0.7,1.9,2470.533,13.28,0.053,90.0
2021-08-10T03:37:03,42.805,6.029,0.016,-0.018,0.022,103.0,104.0,101.0,13.4,1505.2,327.9,-0.8,1.8,2470.512,13.28,0.024,138.4
2021-08-10T03:40:03,42.805,6.029,0.026,-0.016,0.0,102.0,103.0,101.0,13.3,1505.2,331.5,-0.8,1.8,2470.526,13.28,0.03,121.6
2021-08-10T03:43:03,42.805,6.029,0.029,0.001,0.009,102.0,104.0,101.0,13.3,1505.2,326.1,-0.8,1.8,2470.511,13.28,0.029,88.0
2021-08-10T03:46:03,42.805,6.029,0.027,-0.014,-0.006,103.0,103.0,101.0,13.4,1505.2,325.7,-0.8,1.8,2470.487,13.28,0.03,117.4
2021-08-10T03:49:03,42.805,6.029,0.02,0.003,0.038,102.0,102.0,102.0,13.4,1505.2,329.1,-0.8,1.8,2470.517,13.28,0.02,81.5
2021-08-10T03:52:03,42.805,6.029,0.041,-0.011,0.016,102.0,104.0,102.0,13.4,1505.2,328.6,-0.8,1.8,2470.571,13.28,0.042,105.0
2021-08-10T03:55:03,42.805,6.029,0.004,-0.004,0.0,102.0,103.0,102.0,13.4,1505.2,330.7,-0.7,1.8,2470.523,13.28,0.005,135.0
2021-08-10T03:58:03,42.805,6.029,0.032,-0.014,-0.023,103.0,103.0,102.0,13.4,1505.2,328.4,-0.8,1.8,2470.508,13.28,0.034,113.6
2021-08-10T04:04:03,42.805,6.029,0.022,0.003,0.028,103.0,103.0,100.0,13.3,1505.2,329.4,-0.8,1.8,2470.582,13.28,0.022,82.2
2021-08-10T04:07:03,42.805,6.029,0.024,-0.013,-0.011,103.0,102.0,101.0,13.4,1505.2,329.9,-0.7,1.8,2470.584,13.28,0.027,118.4
2021-08-10T04:10:03,42.805,6.029,0.043,-0.018,0.011,103.0,102.0,101.0,13.4,1505.2,328.6,-0.7,1.8,2470.544,13.28,0.046,112.7
2021-08-10T04:13:03,42.805,6.029,0.025,-0.006,-0.021,104.0,102.0,101.0,13.4,1505.2,325.9,-0.8,1.8,2470.558,13.28,0.025,103.5
2021-08-10T04:16:03,42.805,6.029,0.016,-0.014,0.006,104.0,103.0,101.0,13.4,1505.2,328.9,-0.8,1.9,2470.543,13.28,0.021,131.2
2021-08-10T04:19:03,42.805,6.029,0.015,0.005,0.001,102.0,103.0,101.0,13.4,1505.2,327.8,-0.8,1.8,2470.559,13.28,0.015,71.6
2021-08-10T04:22:03,42.805,6.029,0.024,-0.002,0.02,102.0,103.0,101.0,13.3,1505.2,325.7,-0.8,1.8,2470.553,13.28,0.024,94.8
2021-08-10T04:25:03,42.805,6.029,0.0,-0.009,0.009,104.0,103.0,101.0,13.4,1505.2,330.1,-0.8,1.8,2470.529,13.28,0.009,180.0
2021-08-10T04:28:03,42.805,6.029,0.027,-0.015,0.0,104.0,103.0,101.0,13.4,1505.2,328.6,-0.7,1.8,2470.528,13.28,0.03,119.1
2021-08-10T04:31:03,42.805,6.029,0.03,-0.006,-0.015,102.0,104.0,102.0,13.4,1505.2,327.7,-0.7,1.8,2470.547,13.28,0.03,101.3
2021-08-10T04:34:03,42.805,6.029,0.039,-0.003,-0.025,103.0,103.0,101.0,13.3,1505.2,330.6,-0.8,1.8,2470.559,13.28,0.039,94.4
2021-08-10T04:37:03,42.805,6.029,0.04,-0.016,-0.015,103.0,103.0,101.0,13.4,1505.2,325.4,-0.7,1.8,2470.57,13.28,0.043,111.8
2021-08-10T04:40:03,42.805,6.029,0.032,-0.019,0.014,103.0,103.0,101.0,13.3,1505.2,329.0,-0.7,1.8,2470.561,13.28,0.037,120.7
2021-08-10T04:43:03,42.805,6.029,0.019,0.006,-0.016,103.0,103.0,101.0,13.4,1505.2,326.1,-0.8,1.8,2470.562,13.28,0.019,72.5
2021-08-10T04:46:03,42.805,6.029,0.005,-0.018,-0.002,103.0,103.0,101.0,13.4,1505.2,329.7,-0.8,1.9,2470.52,13.28,0.018,164.5
2021-08-10T04:49:03,42.805,6.029,0.023,-0.024,-0.01,105.0,103.0,102.0,13.3,1505.2,325.5,-0.8,1.8,2470.553,13.28,0.033,136.2
2021-08-10T04:52:03,42.805,6.029,0.039,-0.009,-0.013,103.0,103.0,100.0,13.4,1505.2,330.9,-0.7,1.8,2470.56,13.28,0.04,103.0
2021-08-10T04:55:03,42.805,6.029,0.02,-0.016,0.026,103.0,102.0,101.0,13.4,1505.2,329.4,-0.7,1.8,2470.543,13.28,0.025,128.7
2021-08-10T04:58:03,42.805,6.029,0.036,-0.012,0.006,104.0,101.0,101.0,13.4,1505.2,325.7,-0.8,1.8,2470.527,13.28,0.037,108.4
2021-08-10T05:04:03,42.805,6.029,0.015,-0.012,-0.017,102.0,103.0,101.0,13.4,1505.2,328.7,-0.8,1.8,2470.589,13.28,0.019,128.7
2021-08-10T05:07:03,42.805,6.029,0.038,-0.037,0.011,103.0,103.0,100.0,13.4,1505.2,326.0,-0.7,1.8,2470.612,13.28,0.053,134.2
2021-08-10T05:10:03,42.805,6.029,0.048,0.005,0.006,104.0,103.0,100.0,13.4,1505.2,325.7,-0.7,1.8,2470.601,13.28,0.048,84.1
2021-08-10T05:13:03,42.805,6.029,0.038,-0.016,0.001,104.0,101.0,102.0,13.4,1505.2,327.0,-0.8,1.8,2470.567,13.28,0.041,112.8
2021-08-10T05:16:03,42.805,6.029,0.032,-0.005,-0.002,103.0,102.0,102.0,13.4,1505.2,325.6,-0.8,1.8,2470.582,13.28,0.032,98.9
2021-08-10T05:19:03,42.805,6.029,0.013,0.007,0.0,103.0,103.0,101.0,13.4,1505.2,328.8,-0.7,1.8,2470.578,13.28,0.014,61.7
2021-08-10T05:22:03,42.805,6.029,0.021,-0.025,-0.014,102.0,102.0,101.0,13.4,1505.2,328.1,-0.8,1.8,2470.595,13.28,0.032,140.0
2021-08-10T05:25:03,42.805,6.029,0.009,-0.018,-0.019,103.0,102.0,101.0,13.4,1505.2,329.0,-0.8,1.8,2470.608,13.28,0.02,153.4
2021-08-10T05:28:03,42.805,6.029,0.03,-0.019,-0.007,103.0,103.0,100.0,13.4,1505.2,328.9,-0.7,1.8,2470.605,13.28,0.035,122.3
2021-08-10T05:31:03,42.805,6.029,0.022,0.001,0.0,104.0,103.0,100.0,13.4,1505.2,329.2,-0.7,1.9,2470.602,13.28,0.022,87.4
2021-08-10T05:34:03,42.805,6.029,0.022,-0.02,-0.04,102.0,103.0,101.0,13.4,1505.2,325.1,-0.7,1.8,2470.594,13.28,0.029,132.3
2021-08-10T05:37:03,42.805,6.029,0.022,-0.007,-0.013,103.0,102.0,101.0,13.4,1505.2,326.0,-0.7,1.8,2470.605,13.28,0.023,107.6
2021-08-10T05:40:03,42.805,6.029,0.035,-0.021,-0.02,104.0,104.0,100.0,13.4,1505.2,329.5,-0.7,1.8,2470.599,13.28,0.04,121.0
2021-08-10T05:43:03,42.805,6.029,0.031,-0.028,0.001,103.0,103.0,101.0,13.4,1505.2,328.5,-0.8,1.8,2470.615,13.28,0.041,132.1
2021-08-10T05:46:03,42.805,6.029,0.013,0.009,0.015,103.0,103.0,101.0,13.4,1505.2,324.9,-0.8,1.8,2470.572,13.28,0.015,55.3
2021-08-10T05:49:03,42.805,6.029,0.032,-0.017,-0.013,103.0,103.0,101.0,13.3,1505.2,329.3,-0.8,1.8,2470.616,13.28,0.036,118.0
2021-08-10T05:52:03,42.805,6.029,0.026,-0.019,-0.024,102.0,104.0,102.0,13.3,1505.2,329.1,-0.7,1.8,2470.602,13.28,0.032,126.2
2021-08-10T05:55:03,42.805,6.029,0.024,-0.011,0.032,102.0,105.0,101.0,13.4,1505.2,329.0,-0.8,1.8,2470.673,13.28,0.026,114.6
2021-08-10T05:58:03,42.805,6.029,0.016,-0.016,-0.005,102.0,104.0,101.0,13.4,1505.2,325.3,-0.8,1.8,2470.619,13.28,0.022,135.0
2021-08-10T06:04:03,42.805,6.029,0.027,-0.001,-0.024,103.0,102.0,102.0,13.3,1505.2,326.6,-0.7,1.8,2470.641,13.28,0.027,92.1
2021-08-10T06:07:03,42.805,6.029,0.034,0.005,0.019,102.0,102.0,102.0,13.4,1505.2,325.3,-0.8,1.8,2470.65,13.28,0.034,81.6
2021-08-10T06:10:03,42.805,6.029,0.022,-0.009,-0.01,104.0,102.0,102.0,13.4,1505.2,329.9,-0.8,1.8,2470.621,13.28,0.023,112.2
2021-08-10T06:13:03,42.805,6.029,0.016,-0.019,-0.026,102.0,104.0,102.0,13.4,1505.2,329.3,-0.8,1.8,2470.684,13.28,0.024,139.9
2021-08-10T06:16:03,42.805,6.029,0.016,-0.021,-0.025,102.0,103.0,102.0,13.4,1505.2,328.9,-0.7,1.8,2470.603,13.28,0.026,142.7
2021-08-10T06:19:03,42.805,6.029,0.024,0.003,0.025,102.0,103.0,101.0,13.3,1505.2,326.4,-0.7,1.8,2470.652,13.28,0.024,82.9
2021-08-10T06:22:03,42.805,6.029,0.028,-0.008,-0.013,102.0,103.0,102.0,13.4,1505.2,329.8,-0.7,1.8,2470.663,13.28,0.029,105.9
2021-08-10T06:25:03,42.805,6.029,0.027,-0.025,-0.025,103.0,103.0,100.0,13.4,1505.2,327.2,-0.7,1.8,2470.616,13.28,0.036,132.8
2021-08-10T06:28:03,42.805,6.029,0.015,-0.009,-0.015,101.0,104.0,100.0,13.4,1505.2,327.2,-0.8,1.8,2470.634,13.28,0.017,121.0
2021-08-10T06:31:03,42.805,6.029,0.027,-0.017,-0.024,102.0,102.0,102.0,13.4,1505.2,330.4,-0.7,1.8,2470.643,13.28,0.031,122.2
2021-08-10T06:34:03,42.805,6.029,0.031,-0.004,0.042,103.0,104.0,101.0,13.4,1505.2,327.3,-0.8,1.8,2470.653,13.28,0.031,97.3
2021-08-10T06:37:03,42.805,6.029,0.028,-0.013,-0.018,103.0,105.0,100.0,13.4,1505.2,327.1,-0.8,1.8,2470.649,13.28,0.03,114.9
2021-08-10T06:40:03,42.805,6.029,0.046,-0.009,0.01,103.0,103.0,101.0,13.3,1505.2,329.6,-0.7,1.9,2470.647,13.28,0.046,101.1
2021-08-10T06:43:03,42.805,6.029,0.024,-0.013,0.015,103.0,103.0,101.0,13.3,1505.2,328.0,-0.7,1.8,2470.648,13.28,0.027,118.4
2021-08-10T06:46:03,42.805,6.029,0.028,-0.006,0.017,103.0,104.0,100.0,13.4,1505.2,328.5,-0.7,1.8,2470.659,13.28,0.028,102.1
2021-08-10T06:49:03,42.805,6.029,0.028,-0.016,0.0,102.0,103.0,102.0,13.4,1505.2,329.1,-0.7,1.8,2470.654,13.28,0.032,119.7
2021-08-10T06:52:03,42.805,6.029,0.018,0.003,0.025,103.0,102.0,102.0,13.3,1505.2,325.5,-0.8,1.8,2470.659,13.28,0.018,80.5
2021-08-10T06:55:03,42.805,6.029,0.045,-0.01,-0.01,103.0,103.0,101.0,13.4,1505.2,327.3,-0.8,1.8,2470.614,13.28,0.046,102.5
2021-08-10T06:58:03,42.805,6.029,0.022,-0.001,0.012,104.0,103.0,101.0,13.4,1505.2,326.8,-0.7,1.8,2470.64,13.28,0.022,92.6
2021-08-10T07:04:03,42.805,6.029,0.02,-0.024,-0.005,103.0,103.0,101.0,13.3,1505.2,328.0,-0.7,1.8,2470.654,13.28,0.031,140.2
2021-08-10T07:07:03,42.805,6.029,0.039,0.0,0.011,103.0,102.0,101.0,13.4,1505.2,326.7,-0.7,1.8,2470.67,13.28,0.039,90.0
2021-08-10T07:10:03,42.805,6.029,0.018,-0.011,-0.021,102.0,105.0,102.0,13.4,1505.2,327.9,-0.7,1.8,2470.688,13.28,0.021,121.4
2021-08-10T07:13:03,42.805,6.029,0.006,-0.015,-0.02,101.0,104.0,101.0,13.4,1505.2,330.8,-0.8,1.8,2470.699,13.28,0.016,158.2
2021-08-10T07:16:03,42.805,6.029,-0.003,0.001,-0.008,103.0,103.0,100.0,13.3,1505.2,327.8,-0.7,1.8,2470.648,13.28,0.003,288.4
2021-08-10T07:19:03,42.805,6.029,0.031,0.002,0.001,103.0,101.0,101.0,13.3,1505.2,328.3,-0.7,1.8,2470.674,13.28,0.031,86.3
2021-08-10T07:22:03,42.805,6.029,0.017,0.0,0.0,103.0,103.0,100.0,13.4,1505.2,327.3,-0.8,1.8,2470.695,13.28,0.017,90.0
2021-08-10T07:25:03,42.805,6.029,0.022,-0.011,-0.031,103.0,105.0,100.0,13.3,1505.2,327.5,-0.8,1.8,2470.669,13.28,0.024,116.6
2021-08-10T07:28:03,42.805,6.029,0.011,-0.005,0.001,102.0,103.0,100.0,13.4,1505.2,327.0,-0.8,1.8,2470.639,13.28,0.012,114.4
2021-08-10T07:31:03,42.805,6.029,-0.008,-0.006,-0.023,103.0,103.0,101.0,13.4,1505.2,329.0,-0.8,1.8,2470.725,13.28,0.01,233.1
2021-08-10T07:34:03,42.805,6.029,0.013,-0.017,-0.007,102.0,104.0,101.0,13.4,1505.2,325.7,-0.7,1.8,2470.687,13.28,0.021,142.6
2021-08-10T07:37:03,42.805,6.029,0.016,-0.033,-0.017,103.0,104.0,101.0,13.3,1505.2,326.7,-0.8,1.8,2470.665,13.28,0.036,154.1
2021-08-10T07:40:03,42.805,6.029,0.034,-0.013,-0.007,102.0,102.0,102.0,13.4,1505.2,326.3,-0.8,1.8,2470.68,13.28,0.036,110.9
2021-08-10T07:43:03,42.805,6.029,0.03,-0.013,-0.006,103.0,103.0,100.0,13.4,1505.2,325.9,-0.7,1.8,2470.644,13.28,0.032,113.4
2021-08-10T07:46:03,42.805,6.029,0.008,-0.001,-0.012,103.0,101.0,101.0,13.4,1505.2,329.7,-0.7,1.8,2470.698,13.28,0.008,97.1
2021-08-10T07:49:03,42.805,6.029,0.024,-0.023,-0.024,102.0,103.0,101.0,13.3,1505.2,327.6,-0.7,1.8,2470.677,13.28,0.033,133.8
2021-08-10T07:52:03,42.805,6.029,0.017,-0.015,0.006,102.0,102.0,101.0,13.4,1505.2,328.6,-0.7,1.8,2470.652,13.28,0.022,131.4
2021-08-10T07:55:03,42.805,6.029,0.034,-0.004,0.002,102.0,103.0,101.0,13.4,1505.2,329.0,-0.7,1.8,2470.626,13.28,0.034,96.7
2021-08-10T07:58:03,42.805,6.029,0.011,-0.012,-0.027,103.0,103.0,100.0,13.3,1505.2,325.9,-0.8,1.8,2470.681,13.28,0.016,137.5
2021-08-10T08:04:03,42.805,6.029,0.018,-0.02,0.0,102.0,103.0,101.0,13.4,1505.2,328.7,-0.8,1.8,2470.703,13.28,0.026,138.0
2021-08-10T08:07:03,42.805,6.029,0.024,-0.008,0.008,102.0,104.0,101.0,13.4,1505.2,325.2,-0.8,1.8,2470.705,13.28,0.025,108.4
2021-08-10T08:10:03,42.805,6.029,0.032,-0.001,-0.003,103.0,102.0,102.0,13.4,1505.2,328.7,-0.8,1.8,2470.676,13.28,0.032,91.8
2021-08-10T08:13:03,42.805,6.029,0.039,-0.01,0.039,103.0,103.0,100.0,13.4,1505.2,328.9,-0.8,1.8,2470.691,13.28,0.04,104.4
2021-08-10T08:16:03,42.805,6.029,0.022,0.007,-0.002,103.0,104.0,101.0,13.4,1505.2,328.8,-0.7,1.8,2470.67,13.28,0.023,72.4
2021-08-10T08:19:03,42.805,6.029,0.042,-0.005,0.032,103.0,102.0,100.0,13.4,1505.2,326.6,-0.7,1.8,2470.641,13.28,0.042,96.8
2021-08-10T08:22:03,42.805,6.029,0.037,-0.015,0.031,103.0,102.0,101.0,13.3,1505.2,328.8,-0.8,1.8,2470.666,13.28,0.039,112.1
2021-08-10T08:25:03,42.805,6.029,0.022,-0.021,-0.007,102.0,103.0,101.0,13.3,1505.2,325.4,-0.7,1.8,2470.676,13.28,0.03,133.7
2021-08-10T08:28:03,42.805,6.029,0.015,-0.011,-0.004,103.0,102.0,102.0,13.3,1505.2,330.2,-0.7,1.8,2470.651,13.28,0.018,126.3
2021-08-10T08:31:03,42.805,6.029,0.036,-0.018,-0.003,102.0,103.0,101.0,13.4,1505.2,327.3,-0.8,1.8,2470.699,13.28,0.04,116.6
2021-08-10T08:34:03,42.805,6.029,0.041,-0.001,-0.009,101.0,103.0,101.0,13.4,1505.2,328.3,-0.7,1.8,2470.654,13.28,0.041,91.4
2021-08-10T08:37:03,42.805,6.029,0.022,-0.003,0.016,103.0,104.0,101.0,13.3,1505.2,325.5,-0.8,1.8,2470.695,13.28,0.022,97.8
2021-08-10T08:40:03,42.805,6.029,0.04,-0.015,0.0,103.0,103.0,101.0,13.4,1505.2,329.4,-0.7,1.8,2470.709,13.28,0.042,110.6
2021-08-10T08:43:03,42.805,6.029,0.055,-0.011,0.014,102.0,102.0,101.0,13.4,1505.2,326.6,-0.8,1.8,2470.625,13.28,0.056,101.3
2021-08-10T08:46:03,42.805,6.029,0.006,-0.005,-0.028,103.0,101.0,102.0,13.4,1505.2,324.9,-0.8,1.8,2470.637,13.28,0.007,129.8
2021-08-10T08:49:03,42.805,6.029,0.024,-0.016,-0.019,102.0,104.0,100.0,13.4,1505.2,330.3,-0.7,1.8,2470.651,13.28,0.028,123.7
2021-08-10T08:52:03,42.805,6.029,0.005,0.008,0.019,104.0,103.0,100.0,13.4,1505.2,328.9,-0.7,1.8,2470.674,13.28,0.009,32.0
2021-08-10T08:55:03,42.805,6.029,0.016,-0.012,-0.023,103.0,103.0,100.0,13.3,1505.2,330.9,-0.8,1.8,2470.673,13.28,0.02,126.9
2021-08-10T08:58:03,42.805,6.029,0.025,-0.012,0.008,102.0,104.0,101.0,13.4,1505.2,328.0,-0.7,1.8,2470.646,13.28,0.027,115.6
2021-08-10T09:04:03,42.805,6.029,0.01,-0.01,0.001,102.0,103.0,101.0,13.4,1505.2,330.0,-0.7,1.8,2470.688,13.28,0.014,135.0
2021-08-10T09:07:03,42.805,6.029,0.017,-0.011,-0.01,103.0,103.0,101.0,13.4,1505.2,329.5,-0.8,1.8,2470.649,13.28,0.02,122.9
2021-08-10T09:10:03,42.805,6.029,0.033,0.01,0.022,103.0,103.0,100.0,13.4,1505.2,328.3,-0.8,1.8,2470.659,13.28,0.034,73.1
2021-08-10T09:13:03,42.805,6.029,0.028,-0.01,0.009,104.0,102.0,102.0,13.4,1505.2,327.0,-0.8,1.8,2470.645,13.28,0.029,109.6
2021-08-10T09:16:03,42.805,6.029,0.027,-0.005,0.017,103.0,104.0,101.0,13.3,1505.2,330.6,-0.7,1.8,2470.647,13.28,0.027,100.5
2021-08-10T09:19:03,42.805,6.029,-0.009,-0.014,0.001,102.0,104.0,101.0,13.4,1505.2,327.0,-0.8,1.8,2470.697,13.28,0.016,212.7
2021-08-10T09:22:03,42.805,6.029,0.038,-0.017,0.0,103.0,103.0,102.0,13.4,1505.2,325.4,-0.8,1.8,2470.646,13.28,0.041,114.1
2021-08-10T09:25:03,42.805,6.029,0.024,-0.007,0.038,104.0,102.0,101.0,13.4,1505.2,325.7,-0.8,1.8,2470.654,13.28,0.025,106.3
2021-08-10T09:28:03,42.805,6.029,0.038,-0.014,-0.006,104.0,103.0,101.0,13.4,1505.2,326.7,-0.7,1.8,2470.631,13.28,0.04,110.2
2021-08-10T09:31:03,42.805,6.029,0.018,-0.009,0.011,103.0,103.0,102.0,13.4,1505.2,328.1,-0.7,1.8,2470.606,13.28,0.02,116.6
2021-08-10T09:34:03,42.805,6.029,0.022,-0.015,-0.027,103.0,103.0,102.0,13.3,1505.2,327.8,-0.8,1.9,2470.648,13.28,0.026,124.3
2021-08-10T09:37:03,42.805,6.029,0.03,-0.013,0.006,103.0,104.0,100.0,13.4,1505.2,330.0,-0.7,1.8,2470.596,13.28,0.032,113.4
2021-08-10T09:40:03,42.805,6.029,0.019,-0.02,-0.01,103.0,103.0,102.0,13.4,1505.2,327.4,-0.8,1.8,2470.632,13.28,0.027,136.5
2021-08-10T09:43:03,42.805,6.029,0.051,-0.03,-0.005,104.0,103.0,100.0,13.3,1505.2,327.5,-0.7,1.8,2470.604,13.28,0.059,120.5
2021-08-10T09:46:03,42.805,6.029,0.025,-0.009,-0.016,103.0,103.0,101.0,13.4,1505.2,325.9,-0.8,1.8,2470.622,13.28,0.026,109.8
2021-08-10T09:49:03,42.805,6.029,0.044,-0.016,0.003,102.0,103.0,101.0,13.3,1505.2,328.9,-0.7,1.9,2470.659,13.28,0.046,110.0
2021-08-10T09:52:03,42.805,6.029,0.038,-0.025,0.026,103.0,103.0,101.0,13.4,1505.2,326.7,-0.8,1.8,2470.63,13.28,0.045,123.3
2021-08-10T09:55:03,42.805,6.029,0.026,-0.006,0.002,102.0,103.0,101.0,13.4,1505.2,328.3,-0.7,1.8,2470.596,13.28,0.026,103.0
2021-08-10T09:58:03,42.805,6.029,0.021,-0.006,-0.003,102.0,104.0,101.0,13.3,1505.2,328.3,-0.8,1.9,2470.635,13.28,0.021,105.9